Regional Weather Roundup
Issued by NWS

Home | Current Version | Previous Version | Text Only | Print | Product List | Glossary On
Versions: 1 2 3 4 5 6 7 8 9 10 11 12 13 14 15 16 17 18 19 20 21 22 23 24 25 26 27 28 29 30 31 32 33 34 35 36 37 38 39 40 41 42 43 44 45 46 47 48 49 50
000
ASUS43 KOAX 021102
RWRNE

WEATHER ROUNDUP FOR NEBRASKA
NATIONAL WEATHER SERVICE OMAHA NE
600 AM CDT WED SEP 02 2015

NOTES: SATELLITE DATA IS BEING USED TO AUGMENT CLOUD COVER ABOVE
       12000 FEET.
       "FAIR" INDICATES FEW OR NO CLOUDS BELOW 12,000 FEET WITH NO
       SIGNIFICANT WEATHER AND/OR OBSTRUCTIONS TO VISIBILITY.

  * THESE STATIONS DO NOT REPORT WEATHER SUCH AS RAIN...SNOW OR FOG.

NEZ001>004-019>022-054>056-021200-
NEBRASKA PANHANDLE

CITY           SKY/WX    TMP DP  RH WIND       PRES   REMARKS
SCOTTSBLUFF    PTCLDY    56  50  80 N5        29.97S
ALLIANCE       PTCLDY    54  46  74 CALM      29.95R
CHADRON        MOCLDY    56  46  69 SW7       29.89R
KIMBALL        MOCLDY    55  43  63 W7        30.02S
SIDNEY         PTCLDY    60  43  53 NW7       29.99S
$$

NEZ057>060-069>072-079>082-021200-
SOUTHWEST NEBRASKA

CITY           SKY/WX    TMP DP  RH WIND       PRES   REMARKS
NORTH PLATTE   CLEAR     60  58  92 SE3       29.90F
IMPERIAL       CLEAR     62  56  80 CALM      29.92F
LEXINGTON      CLEAR     62  59  92 CALM      29.89S
MC COOK        CLEAR     60  57  89 S3        29.90S
OGALLALA       CLEAR     58  55  89 W5        29.93S
$$

NEZ005>010-023>029-035>040-094-021200-
NORTH CENTRAL NEBRASKA

CITY           SKY/WX    TMP DP  RH WIND       PRES   REMARKS
VALENTINE      CLEAR     58  56  93 W6        29.85S
BROKEN BOW     CLEAR     61  58  90 CALM      29.88F
O`NEILL        CLEAR     65  64  96 S6        29.85S
ORD            CLEAR     60  59  96 CALM      29.85S
THEDFORD       CLEAR     64  60  87 CALM      29.89S
$$

NEZ041-046>049-061>064-073>077-083>087-021200-
SOUTH CENTRAL NEBRASKA

CITY           SKY/WX    TMP DP  RH WIND       PRES   REMARKS
GRAND ISLAND   CLEAR     69  62  78 S6        29.88S
AURORA         CLEAR     69  66  90 S5        29.88S
HASTINGS       CLEAR     69  61  75 S5        29.89S
HEBRON         CLEAR     73  63  72 S7        29.90S
HOLDREGE       CLEAR     65  57  75 S6        29.89S
KEARNEY *      CLEAR     64  57  77 S3        29.89R
YORK           CLEAR     68  66  94 S9        29.88F
$$

NEZ011>018-030>034-042>045-021200-
NORTHEAST NEBRASKA

CITY           SKY/WX    TMP DP  RH WIND       PRES   REMARKS
NORFOLK        CLEAR     63  62  97 E5        29.85S FOG
ALBION         CLEAR     67  62  83 SE3       29.86F
BLAIR          FAIR      72  67  84 S10       29.90S
COLUMBUS *     CLEAR     72  63  73 S5        29.87S
FREMONT        CLEAR     72  67  85 SE8       29.89S
TEKAMAH        CLEAR     70  68  93 SE8       29.88S
$$

NEZ050>053-065>068-078-088>093-021200-
SOUTHEAST NEBRASKA

CITY           SKY/WX    TMP DP  RH WIND       PRES   REMARKS
LINCOLN        CLEAR     73  67  81 S9        29.89S
OMAHA EPPLEY   PTCLDY    74  69  85 S9        29.90S
BEATRICE       PTCLDY    73  66  80 S8        29.91S
FALLS CITY     CLOUDY    72  68  87 E6        29.94R
NEBRASKA CITY  MOCLDY    72  66  82 S9        29.92S
PLATTSMOUTH    PTCLDY    71  67  87 SE9       29.91S
$$

NEZ044-045-051>053-067-021200-
OMAHA AREA

CITY           SKY/WX    TMP DP  RH WIND       PRES   REMARKS
EPPLEY FIELD   PTCLDY    74  69  85 S9        29.90S
BLAIR          CLEAR     72  67  84 S10       29.90S
FREMONT        CLEAR     72  67  85 SE8       29.89S
MILLARD        CLEAR     72  69  89 SE3       29.90S
OFFUTT AFB     PTCLDY    73  68  83 SE12      29.90S
PLATTSMOUTH    PTCLDY    71  67  87 SE9       29.91S
WAHOO          FAIR      69  67  94 SE7       29.88S
$$


USA.gov is the U.S. government's official web portal to all federal, state and local government web resources and services.